This is the latest recevied weather packets stored in our database for station/object NR0A-4. If no packets are shown the sender has not sent any weather packets the latest 10 day(s).
| Time | Temp. | Humidity | Pressure | Rain* | Wind** | Luminosity | Snow |
|---|---|---|---|---|---|---|---|
| 1778107805 | 15.56° C | 28% | 1015 hPa | 0 mm | - | 501 W/m² | - |
| 1778107505 | 15° C | 29% | 1015 hPa | 0 mm | - | 548 W/m² | - |
| 1778107204 | 15° C | 29% | 1015.2 hPa | 0 mm | - | 608 W/m² | - |
| 1778106904 | 15° C | 30% | 1015.2 hPa | 0 mm | - | 265 W/m² | - |
| 1778106604 | 15° C | 29% | 1015.3 hPa | 0 mm | - | 135 W/m² | - |
| 1778106304 | 15.56° C | 28% | 1015.3 hPa | 0 mm | - | 165 W/m² | - |
| 1778106004 | 16.11° C | 29% | 1015.4 hPa | 0 mm | - | 156 W/m² | - |
| 1778105704 | 16.11° C | 28% | 1015.3 hPa | 0 mm | - | 666 W/m² | - |
| 1778105405 | 15.56° C | 29% | 1015.3 hPa | 0 mm | - | 675 W/m² | - |
| 1778105104 | 15° C | 29% | 1015.4 hPa | 0 mm | - | 758 W/m² | - |
| 1778104804 | 14.44° C | 29% | 1015.5 hPa | 0 mm | - | 250 W/m² | - |
| 1778104505 | 14.44° C | 28% | 1015.6 hPa | 0 mm | - | 195 W/m² | - |
| 1778104205 | 14.44° C | 28% | 1015.6 hPa | 0 mm | - | 223 W/m² | - |
| 1778103904 | 15° C | 27% | 1015.7 hPa | 0 mm | - | 276 W/m² | - |
| 1778103604 | 15° C | 30% | 1015.8 hPa | 0 mm | - | 504 W/m² | - |
| 1778103304 | 15° C | 28% | 1015.8 hPa | 0 mm | - | 731 W/m² | - |
| 1778103005 | 15° C | 27% | 1015.8 hPa | 0 mm | - | 172 W/m² | - |
| 1778102705 | 15.56° C | 26% | 1015.9 hPa | 0 mm | - | 176 W/m² | - |
| 1778102404 | 15.56° C | 28% | 1016 hPa | 0 mm | - | 751 W/m² | - |
| 1778102104 | 15° C | 28% | 1016 hPa | 0 mm | - | 647 W/m² | - |
| 1778101805 | 15° C | 28% | 1016.1 hPa | 0 mm | - | 255 W/m² | - |
| 1778101505 | 15° C | 26% | 1016.1 hPa | 0 mm | - | 838 W/m² | - |
| 1778101204 | 14.44° C | 28% | 1016.3 hPa | 0 mm | - | 884 W/m² | - |
| 1778100904 | 14.44° C | 28% | 1016.3 hPa | 0 mm | - | 381 W/m² | - |
| 1778100604 | 15° C | 27% | 1016.4 hPa | 0 mm | - | 374 W/m² | - |
* Rain latest hour (hover to see other rain measurements)
** Current wind speed in m/s (hover to see current wind gust speed)